Date,TemperatureHighF,TemperatureAvgF,TemperatureLowF,DewpointHighF,DewpointAvgF,DewpointLowF,HumidityHigh,HumidityAvg,HumidityLow,PressureMaxIn,PressureMinIn,WindSpeedMaxMPH,WindSpeedAvgMPH,GustSpeedMaxMPH,PrecipitationSumIn
2013-2-5,49.5,47.0,44.0,44.8,42.9,41.1,92,85,79,29.85,29.73,15,2,0,0.08
2013-2-6,48.5,45.1,42.5,42.8,41.5,40.0,93,87,75,29.97,29.73,13,1,0,0.06
2013-2-7,51.0,42.9,31.0,41.7,37.7,28.9,93,82,62,30.17,29.73,22,1,0,0.01
2013-2-8,46.6,37.7,28.8,44.0,35.0,27.0,95,90,77,30.28,30.17,6,0,0,0.01
2013-2-9,45.7,40.1,32.7,42.1,37.8,30.8,94,92,85,30.33,30.24,2,0,0,0.04
2013-2-10,48.4,37.0,27.7,43.7,33.6,25.9,95,88,70,30.36,30.30,7,0,0,0.00
2013-2-11,44.0,41.7,38.5,42.0,39.9,36.7,95,93,91,30.32,30.29,6,0,0,0.04
2013-2-12,49.0,46.1,42.4,45.5,43.4,40.8,95,90,83,30.35,30.18,18,1,0,0.03
2013-2-13,50.4,45.1,37.2,45.1,40.8,34.9,94,85,78,30.46,30.22,8,0,0,0.00
2013-2-14,42.9,41.4,40.6,41.3,39.8,39.0,94,94,93,30.46,30.44,1,0,0,0.01
2013-2-16,52.6,46.3,41.4,45.6,42.1,39.1,95,86,67,30.15,30.05,11,1,0,0.08
2013-2-17,49.3,41.7,35.5,41.9,36.9,32.9,93,83,69,30.21,30.09,8,0,0,0.05
2013-2-18,45.4,40.4,37.3,41.2,37.3,34.3,93,89,74,30.09,29.75,8,0,0,0.03
2013-2-19,51.2,41.2,31.3,42.1,36.3,29.1,92,83,68,29.97,29.74,12,1,0,0.00
2013-2-20,42.8,37.7,31.3,40.1,35.5,29.1,94,92,88,30.01,29.96,4,0,0,0.05
2013-2-21,45.1,42.0,35.1,41.6,39.4,33.5,95,90,84,30.00,29.93,12,1,0,0.25
2013-2-22,48.7,43.8,41.7,44.8,39.4,35.1,93,85,68,29.98,29.56,25,3,0,0.42
2013-2-23,51.4,44.7,41.4,41.8,38.2,34.8,89,78,60,30.30,29.79,11,1,0,0.00
2013-2-24,47.2,44.8,40.9,40.4,38.9,37.7,90,80,72,30.31,29.81,23,2,0,0.02
2013-2-25,47.8,44.9,38.0,43.2,39.0,33.9,90,80,67,30.24,29.76,26,2,0,0.14
2013-2-26,46.6,42.3,35.8,39.3,36.8,33.1,93,81,66,30.30,30.12,14,1,0,0.09
2013-2-27,48.6,42.5,36.9,42.1,38.9,34.8,93,87,72,30.29,30.14,7,0,0,0.01
2013-2-28,45.4,40.9,36.5,42.8,39.2,34.4,95,94,92,30.26,30.17,10,0,0,0.95